EXS641 EGNX-LEAL

Flight info

Callsign EXS641
Flight time 2h 16m
Altitude 35000
Route SAPCO Y53 DTY M605 SILVA/N0455F340 Q41 COWLY/N0462F350 UT71 VAPID UN859 SOPIL DCT BALAN DCT LMG DCT PIMQO DCT AGN DCT ANETO DCT POSSY DCT XIMPE DCT RIMES DCT SAURA DCT TATOS DCT PLANA DCT VLC
Aircraft B738/M-SDE2E3FGHIRWXY/LB1

Departure

Time 2026-04-28 17:18
Airport East Midlands Airport (EGNX)

Arrival

Time 2026-04-28 19:35
Airport Alicante-Elche Miguel Hernández Airport (LEAL)
Time Latitude Longitude Altitude Speed Heading
2026-04-28 16:32 52.82709 -1.33212 299 ft 0 kts 178°
2026-04-28 17:00 52.82722 -1.33212 299 ft 2 kts 179°
2026-04-28 17:01 52.82738 -1.33213 299 ft 2 kts 177°
2026-04-28 17:01 52.82753 -1.33214 299 ft 2 kts 178°
2026-04-28 17:01 52.82765 -1.33222 299 ft 2 kts 122°
2026-04-28 17:01 52.82767 -1.33246 299 ft 2 kts 78°
2026-04-28 17:02 52.82766 -1.33269 299 ft 1 kts 91°
2026-04-28 17:02 52.82766 -1.33272 300 ft 0 kts 91°
2026-04-28 17:07 52.82766 -1.33247 299 ft 4 kts 88°
2026-04-28 17:07 52.82781 -1.33177 299 ft 7 kts 41°
2026-04-28 17:08 52.82824 -1.33162 299 ft 5 kts 360°
2026-04-28 17:08 52.82863 -1.33163 299 ft 5 kts 360°
2026-04-28 17:08 52.82899 -1.33168 300 ft 6 kts 340°
2026-04-28 17:08 52.82923 -1.33241 300 ft 9 kts 272°
2026-04-28 17:09 52.82921 -1.33371 301 ft 12 kts 269°
2026-04-28 17:09 52.82919 -1.33533 303 ft 14 kts 268°
2026-04-28 17:09 52.82915 -1.33692 304 ft 12 kts 269°
2026-04-28 17:09 52.82913 -1.33827 305 ft 10 kts 269°
2026-04-28 17:10 52.82911 -1.33940 305 ft 9 kts 268°
2026-04-28 17:10 52.82909 -1.34048 306 ft 10 kts 269°
2026-04-28 17:10 52.82907 -1.34191 307 ft 14 kts 268°
2026-04-28 17:10 52.82908 -1.34341 308 ft 12 kts 271°
2026-04-28 17:11 52.82907 -1.34472 308 ft 10 kts 269°
2026-04-28 17:11 52.82905 -1.34597 309 ft 11 kts 269°
2026-04-28 17:11 52.82903 -1.34741 310 ft 13 kts 268°
2026-04-28 17:11 52.82899 -1.34872 310 ft 7 kts 269°
2026-04-28 17:12 52.82927 -1.34929 310 ft 5 kts 345°
2026-04-28 17:12 52.82949 -1.34933 310 ft 0 kts 357°
2026-04-28 17:16 52.82984 -1.34935 311 ft 6 kts 358°
2026-04-28 17:16 52.83030 -1.34938 311 ft 6 kts
2026-04-28 17:17 52.83062 -1.34912 311 ft 4 kts 79°
2026-04-28 17:17 52.83064 -1.34857 311 ft 5 kts 88°
2026-04-28 17:17 52.83068 -1.34611 311 ft 52 kts 87°
2026-04-28 17:17 52.83086 -1.33639 306 ft 115 kts 87°
2026-04-28 17:18 52.83118 -1.32013 311 ft 163 kts 89°
2026-04-28 17:18 52.83103 -1.30111 844 ft 168 kts 88°
2026-04-28 17:18 52.83053 -1.28358 1898 ft 145 kts 85°
2026-04-28 17:18 52.82962 -1.26705 2385 ft 152 kts 93°
2026-04-28 17:19 52.82803 -1.24920 2773 ft 165 kts 93°
2026-04-28 17:19 52.82459 -1.23041 3218 ft 181 kts 113°
2026-04-28 17:19 52.81622 -1.21331 3617 ft 202 kts 128°
2026-04-28 17:19 52.80578 -1.19620 4041 ft 218 kts 128°
2026-04-28 17:20 52.79494 -1.17787 4502 ft 231 kts 129°
2026-04-28 17:20 52.78661 -1.16616 4772 ft 246 kts 143°
2026-04-28 17:20 52.76343 -1.15664 5446 ft 276 kts 180°
2026-04-28 17:20 52.74472 -1.16492 6147 ft 286 kts 201°
2026-04-28 17:21 52.72784 -1.18246 6863 ft 292 kts 214°
2026-04-28 17:21 52.71179 -1.20349 7497 ft 299 kts 216°
2026-04-28 17:21 52.69576 -1.22531 8210 ft 301 kts 216°
2026-04-28 17:22 52.66300 -1.26904 9294 ft 310 kts 215°
2026-04-28 17:22 52.64612 -1.29108 9388 ft 317 kts 215°
2026-04-28 17:22 52.62880 -1.31355 10185 ft 314 kts 214°
2026-04-28 17:23 52.59348 -1.35841 11006 ft 336 kts 208°
2026-04-28 17:23 52.57182 -1.37354 11290 ft 341 kts 186°
2026-04-28 17:23 52.54822 -1.37494 11644 ft 344 kts 167°
2026-04-28 17:23 52.52508 -1.36453 11995 ft 348 kts 152°
2026-04-28 17:24 52.50308 -1.34679 12407 ft 356 kts 146°
2026-04-28 17:24 52.48159 -1.32611 12938 ft 361 kts 144°
2026-04-28 17:24 52.45962 -1.30567 13633 ft 366 kts 147°
2026-04-28 17:24 52.43688 -1.28707 14246 ft 373 kts 149°
2026-04-28 17:25 52.41302 -1.26964 14964 ft 377 kts 151°
2026-04-28 17:25 52.36435 -1.23676 16325 ft 384 kts 152°
2026-04-28 17:25 52.33955 -1.22036 17006 ft 387 kts 152°
2026-04-28 17:26 52.31430 -1.20361 17661 ft 390 kts 151°
2026-04-28 17:26 52.28939 -1.18703 18291 ft 394 kts 151°
2026-04-28 17:26 52.26391 -1.16998 18917 ft 397 kts 151°
2026-04-28 17:26 52.23828 -1.15278 19448 ft 402 kts 151°
2026-04-28 17:27 52.21253 -1.13555 20103 ft 404 kts 150°
2026-04-28 17:27 52.18608 -1.11912 20653 ft 411 kts 154°
2026-04-28 17:27 52.15830 -1.10571 21167 ft 419 kts 158°
2026-04-28 17:27 52.13016 -1.09498 21745 ft 424 kts 160°
2026-04-28 17:28 52.10085 -1.08518 22170 ft 431 kts 161°
2026-04-28 17:28 52.04147 -1.06668 23263 ft 436 kts 160°
2026-04-28 17:28 52.01150 -1.05739 23772 ft 439 kts 160°
2026-04-28 17:29 51.98179 -1.04808 24249 ft 442 kts 160°
2026-04-28 17:29 51.95125 -1.03838 24607 ft 448 kts 160°
2026-04-28 17:29 51.92084 -1.02870 25269 ft 447 kts 160°
2026-04-28 17:30 51.85968 -1.01366 26253 ft 459 kts 167°
2026-04-28 17:30 51.79447 -1.01702 27000 ft 479 kts 178°
2026-04-28 17:30 51.76096 -1.02392 27309 ft 487 kts 180°
2026-04-28 17:31 51.72718 -1.03243 27731 ft 490 kts 181°
2026-04-28 17:31 51.65935 -1.05147 28484 ft 496 kts 182°
2026-04-28 17:32 51.59140 -1.06597 29406 ft 485 kts 174°
2026-04-28 17:32 51.55817 -1.06675 30172 ft 472 kts 170°
2026-04-28 17:32 51.52576 -1.06537 30721 ft 466 kts 168°
2026-04-28 17:32 51.49330 -1.06272 30955 ft 467 kts 167°
2026-04-28 17:33 51.46141 -1.05659 31228 ft 462 kts 161°
2026-04-28 17:33 51.43004 -1.04520 31497 ft 456 kts 155°
2026-04-28 17:33 51.40043 -1.02892 31913 ft 446 kts 150°
2026-04-28 17:33 51.38160 -1.01554 32083 ft 443 kts 146°
2026-04-28 17:34 51.34656 -0.98293 32521 ft 434 kts 139°
2026-04-28 17:34 51.32207 -0.95482 32779 ft 433 kts 136°
2026-04-28 17:34 51.29808 -0.92684 33028 ft 435 kts 138°
2026-04-28 17:34 51.27275 -0.89928 33277 ft 438 kts 141°
2026-04-28 17:35 51.24699 -0.87384 33508 ft 441 kts 143°
2026-04-28 17:35 51.22033 -0.84974 33826 ft 441 kts 145°
2026-04-28 17:35 51.19336 -0.82694 34099 ft 442 kts 147°
2026-04-28 17:35 51.16586 -0.80468 34336 ft 442 kts 148°
2026-04-28 17:36 51.13815 -0.78283 34498 ft 445 kts 148°
2026-04-28 17:36 51.11044 -0.76129 34708 ft 446 kts 149°
2026-04-28 17:36 51.08226 -0.73957 34901 ft 446 kts 149°
2026-04-28 17:36 51.05456 -0.71830 35102 ft 446 kts 149°
2026-04-28 17:37 51.02661 -0.69686 35206 ft 447 kts 149°
2026-04-28 17:37 50.99854 -0.67535 35214 ft 449 kts 149°
2026-04-28 17:37 50.94244 -0.63243 35215 ft 448 kts 150°
2026-04-28 17:38 50.88676 -0.58992 35203 ft 446 kts 150°
2026-04-28 17:38 50.83078 -0.54726 35205 ft 445 kts 150°
2026-04-28 17:39 50.77506 -0.50487 35195 ft 446 kts 150°
2026-04-28 17:40 50.69115 -0.44126 35187 ft 446 kts 150°
2026-04-28 17:40 50.63578 -0.39944 35180 ft 445 kts 150°
2026-04-28 17:41 50.57997 -0.35738 35175 ft 444 kts 151°
2026-04-28 17:41 50.52423 -0.31548 35164 ft 445 kts 152°
2026-04-28 17:42 50.46838 -0.27361 35158 ft 445 kts 152°
2026-04-28 17:42 50.41235 -0.23172 35150 ft 445 kts 152°
2026-04-28 17:43 50.35697 -0.19043 35140 ft 444 kts 152°
2026-04-28 17:43 50.30121 -0.14897 35145 ft 445 kts 153°
2026-04-28 17:44 50.24530 -0.10749 35139 ft 445 kts 153°
2026-04-28 17:44 50.18970 -0.06636 35346 ft 444 kts 153°
2026-04-28 17:44 50.16164 -0.04564 35149 ft 444 kts 153°
2026-04-28 17:45 50.13393 -0.02528 35126 ft 439 kts 153°
2026-04-28 17:45 50.07698 0.00989 35120 ft 444 kts 161°
2026-04-28 17:46 50.01757 0.03533 35110 ft 446 kts 164°
2026-04-28 17:46 49.95754 0.05804 35108 ft 446 kts 165°
2026-04-28 17:47 49.89790 0.08047 35111 ft 445 kts 165°
2026-04-28 17:47 49.83783 0.10341 35093 ft 442 kts 165°
2026-04-28 17:48 49.77826 0.12640 35102 ft 442 kts 165°
2026-04-28 17:48 49.71862 0.14953 35094 ft 441 kts 165°
2026-04-28 17:49 49.65924 0.17268 35084 ft 441 kts 165°
2026-04-28 17:49 49.60019 0.19637 35084 ft 440 kts 165°
2026-04-28 17:50 49.54092 0.22035 35075 ft 438 kts 165°
2026-04-28 17:50 49.48215 0.24406 35081 ft 440 kts 165°
2026-04-28 17:51 49.42306 0.26777 35085 ft 438 kts 165°
2026-04-28 17:51 49.36379 0.29147 35072 ft 437 kts 165°
2026-04-28 17:52 49.30449 0.31512 35068 ft 439 kts 166°
2026-04-28 17:52 49.21599 0.35203 35066 ft 439 kts 165°
2026-04-28 17:53 49.15748 0.37687 35043 ft 438 kts 165°
2026-04-28 17:53 49.09881 0.40167 35049 ft 438 kts 165°
2026-04-28 17:54 49.04017 0.42631 35048 ft 439 kts 166°
2026-04-28 17:54 48.98141 0.45087 35037 ft 439 kts 166°
2026-04-28 17:55 48.92240 0.47545 35048 ft 440 kts 166°
2026-04-28 17:55 48.86403 0.49972 35021 ft 436 kts 166°
2026-04-28 17:56 48.80525 0.52408 35042 ft 437 kts 166°
2026-04-28 17:56 48.74700 0.54778 35037 ft 435 kts 167°
2026-04-28 17:57 48.68864 0.57060 35032 ft 434 kts 167°
2026-04-28 17:57 48.63031 0.59321 35013 ft 432 kts 168°
2026-04-28 17:58 48.57207 0.61581 35016 ft 432 kts 168°
2026-04-28 17:58 48.51404 0.63836 35013 ft 434 kts 168°
2026-04-28 17:59 48.45590 0.66170 35008 ft 432 kts 168°
2026-04-28 17:59 48.39815 0.68529 35015 ft 432 kts 168°
2026-04-28 18:00 48.34037 0.70886 34992 ft 430 kts 169°
2026-04-28 18:00 48.28256 0.73235 34997 ft 429 kts 168°
2026-04-28 18:01 48.22516 0.75553 34993 ft 430 kts 169°
2026-04-28 18:01 48.16718 0.77838 35002 ft 430 kts 169°
2026-04-28 18:02 48.10989 0.80082 34990 ft 428 kts 169°
2026-04-28 18:02 48.05208 0.82339 34993 ft 431 kts 170°
2026-04-28 18:03 47.99384 0.84609 34983 ft 429 kts 170°
2026-04-28 18:03 47.93628 0.86857 35002 ft 428 kts 170°
2026-04-28 18:04 47.87882 0.89093 34989 ft 428 kts 170°
2026-04-28 18:04 47.82097 0.91339 34995 ft 429 kts 171°
2026-04-28 18:05 47.77309 0.93197 34981 ft 428 kts 171°
2026-04-28 18:05 47.70544 0.95813 34985 ft 429 kts 171°
2026-04-28 18:06 47.64762 0.98044 34979 ft 430 kts 171°
2026-04-28 18:06 47.59009 1.00258 34979 ft 429 kts 171°
2026-04-28 18:07 47.53237 1.02473 34971 ft 429 kts 171°
2026-04-28 18:07 47.47404 1.04691 34956 ft 432 kts 172°
2026-04-28 18:08 47.41553 1.06253 34959 ft 424 kts 180°
2026-04-28 18:08 47.35701 1.06498 34953 ft 421 kts 185°
2026-04-28 18:09 47.29860 1.06307 34954 ft 421 kts 186°
2026-04-28 18:09 47.23995 1.06086 34944 ft 421 kts 186°
2026-04-28 18:10 47.18150 1.05899 34959 ft 421 kts 186°
2026-04-28 18:10 47.12284 1.05739 34952 ft 422 kts 186°
2026-04-28 18:11 47.06431 1.05595 34951 ft 422 kts 186°
2026-04-28 18:11 47.00561 1.05442 34950 ft 424 kts 187°
2026-04-28 18:12 46.94684 1.05205 34956 ft 423 kts 187°
2026-04-28 18:12 46.88821 1.04935 34944 ft 422 kts 187°
2026-04-28 18:13 46.82958 1.04672 34960 ft 423 kts 187°
2026-04-28 18:13 46.77089 1.04417 34942 ft 420 kts 187°
2026-04-28 18:14 46.71260 1.04166 34940 ft 421 kts 187°
2026-04-28 18:14 46.65404 1.03917 34959 ft 422 kts 187°
2026-04-28 18:15 46.59569 1.03669 34956 ft 421 kts 187°
2026-04-28 18:15 46.53683 1.03421 34937 ft 422 kts 187°
2026-04-28 18:16 46.47839 1.03225 34943 ft 422 kts 186°
2026-04-28 18:16 46.41972 1.03165 34941 ft 424 kts 186°
2026-04-28 18:17 46.36055 1.03127 34949 ft 425 kts 186°
2026-04-28 18:17 46.30164 1.03081 34940 ft 423 kts 186°
2026-04-28 18:18 46.24295 1.03024 34932 ft 424 kts 186°
2026-04-28 18:18 46.19428 1.02971 34922 ft 424 kts 186°
2026-04-28 18:19 46.12539 1.02897 34924 ft 424 kts 186°
2026-04-28 18:19 46.06655 1.02832 34901 ft 424 kts 186°
2026-04-28 18:20 46.00791 1.02766 34910 ft 423 kts 186°
2026-04-28 18:20 45.94885 1.02700 34917 ft 423 kts 186°
2026-04-28 18:21 45.89007 1.02634 34932 ft 425 kts 186°
2026-04-28 18:21 45.83136 1.02637 34931 ft 425 kts 183°
2026-04-28 18:22 45.77195 1.03537 34943 ft 432 kts 177°
2026-04-28 18:22 45.71241 1.05036 34928 ft 434 kts 175°
2026-04-28 18:23 45.65356 1.06626 34934 ft 433 kts 175°
2026-04-28 18:23 45.59434 1.08200 34926 ft 433 kts 175°
2026-04-28 18:24 45.54488 1.09489 34927 ft 433 kts 175°
2026-04-28 18:24 45.47550 1.11275 34926 ft 433 kts 175°
2026-04-28 18:25 45.41636 1.12786 34922 ft 433 kts 175°
2026-04-28 18:26 45.32746 1.15045 34920 ft 433 kts 175°
2026-04-28 18:26 45.26849 1.16539 34919 ft 433 kts 175°
2026-04-28 18:27 45.20902 1.18028 34916 ft 433 kts 176°
2026-04-28 18:27 45.14965 1.18733 34917 ft 425 kts 187°
2026-04-28 18:28 45.09111 1.17804 34922 ft 422 kts 194°
2026-04-28 18:28 45.03352 1.16299 34928 ft 422 kts 195°
2026-04-28 18:29 44.97578 1.14716 34928 ft 423 kts 195°
2026-04-28 18:29 44.91822 1.13182 34932 ft 420 kts 194°
2026-04-28 18:30 44.86078 1.11685 34929 ft 424 kts 194°
2026-04-28 18:30 44.80339 1.10213 34926 ft 421 kts 194°
2026-04-28 18:31 44.74610 1.08752 34927 ft 423 kts 194°
2026-04-28 18:31 44.68830 1.07282 34929 ft 423 kts 194°
2026-04-28 18:32 44.63015 1.05809 34929 ft 424 kts 194°
2026-04-28 18:32 44.57198 1.04338 34924 ft 424 kts 194°
2026-04-28 18:33 44.51387 1.02870 34929 ft 425 kts 194°
2026-04-28 18:33 44.45584 1.01410 34925 ft 425 kts 194°
2026-04-28 18:34 44.39737 0.99941 34926 ft 426 kts 194°
2026-04-28 18:34 44.33916 0.98483 34926 ft 426 kts 194°
2026-04-28 18:35 44.28088 0.97025 34925 ft 427 kts 193°
2026-04-28 18:35 44.22247 0.95568 34924 ft 427 kts 193°
2026-04-28 18:36 44.16409 0.94114 34926 ft 427 kts 193°
2026-04-28 18:36 44.10556 0.92661 34927 ft 427 kts 193°
2026-04-28 18:37 44.04727 0.91217 34925 ft 428 kts 193°
2026-04-28 18:37 43.98837 0.89758 34926 ft 428 kts 193°
2026-04-28 18:38 43.92994 0.88319 34924 ft 428 kts 193°
2026-04-28 18:38 43.87114 0.86865 34927 ft 428 kts 194°
2026-04-28 18:39 43.81292 0.85331 34924 ft 429 kts 194°
2026-04-28 18:39 43.75422 0.83742 34923 ft 429 kts 194°
2026-04-28 18:40 43.69556 0.82159 34913 ft 429 kts 194°
2026-04-28 18:40 43.63719 0.80595 34914 ft 429 kts 194°
2026-04-28 18:41 43.57865 0.79033 34911 ft 428 kts 194°
2026-04-28 18:41 43.52001 0.77475 34908 ft 429 kts 194°
2026-04-28 18:42 43.46159 0.75928 34910 ft 429 kts 194°
2026-04-28 18:42 43.40263 0.74368 34918 ft 429 kts 194°
2026-04-28 18:43 43.34394 0.72819 34923 ft 430 kts 194°
2026-04-28 18:43 43.28540 0.71278 34928 ft 430 kts 194°
2026-04-28 18:44 43.22679 0.69737 34927 ft 431 kts 194°
2026-04-28 18:44 43.13829 0.67419 34936 ft 430 kts 194°
2026-04-28 18:45 43.07956 0.65885 34941 ft 430 kts 194°
2026-04-28 18:45 43.02098 0.64356 34941 ft 430 kts 194°
2026-04-28 18:46 42.96230 0.62826 34949 ft 430 kts 194°
2026-04-28 18:46 42.90336 0.61294 34955 ft 431 kts 194°
2026-04-28 18:47 42.84457 0.59768 34972 ft 431 kts 194°
2026-04-28 18:47 42.78550 0.58237 34987 ft 431 kts 194°
2026-04-28 18:48 42.72657 0.56675 34996 ft 430 kts 195°
2026-04-28 18:48 42.66947 0.54322 34995 ft 428 kts 204°
2026-04-28 18:49 42.62421 0.51652 34991 ft 426 kts 207°
2026-04-28 18:49 42.56184 0.47608 34979 ft 426 kts 208°
2026-04-28 18:50 42.50847 0.44123 34974 ft 426 kts 208°
2026-04-28 18:50 42.45512 0.40677 34968 ft 427 kts 208°
2026-04-28 18:51 42.40137 0.37237 34967 ft 427 kts 207°
2026-04-28 18:51 42.34746 0.33807 34955 ft 427 kts 207°
2026-04-28 18:52 42.29401 0.30418 34947 ft 426 kts 207°
2026-04-28 18:52 42.23998 0.26999 34940 ft 427 kts 207°
2026-04-28 18:53 42.18632 0.23610 34940 ft 426 kts 207°
2026-04-28 18:53 42.13298 0.20247 34940 ft 426 kts 207°
2026-04-28 18:54 42.07873 0.17015 34922 ft 428 kts 203°
2026-04-28 18:54 42.02064 0.15005 34904 ft 432 kts 192°
2026-04-28 18:55 41.96088 0.13981 34900 ft 434 kts 189°
2026-04-28 18:55 41.90076 0.13170 34898 ft 435 kts 188°
2026-04-28 18:56 41.84061 0.12349 34892 ft 434 kts 189°
2026-04-28 18:56 41.78043 0.11491 34889 ft 435 kts 189°
2026-04-28 18:57 41.72038 0.10612 34889 ft 435 kts 189°
2026-04-28 18:57 41.66044 0.09726 34889 ft 436 kts 189°
2026-04-28 18:58 41.59979 0.08828 34889 ft 435 kts 189°
2026-04-28 18:58 41.53945 0.07933 34895 ft 437 kts 189°
2026-04-28 18:59 41.47921 0.07042 34888 ft 437 kts 189°
2026-04-28 18:59 41.41862 0.06148 34891 ft 438 kts 189°
2026-04-28 19:00 41.35836 0.05260 34888 ft 439 kts 189°
2026-04-28 19:00 41.29729 0.04362 34878 ft 440 kts 189°
2026-04-28 19:01 41.23685 0.03477 34877 ft 438 kts 189°
2026-04-28 19:01 41.17617 0.02587 34889 ft 439 kts 189°
2026-04-28 19:02 41.11535 0.01698 34889 ft 439 kts 189°
2026-04-28 19:02 41.05479 0.00812 34897 ft 440 kts 189°
2026-04-28 19:03 40.99397 -0.00076 34902 ft 440 kts 189°
2026-04-28 19:03 40.93313 -0.00962 34906 ft 441 kts 189°
2026-04-28 19:04 40.87242 -0.01845 34918 ft 441 kts 188°
2026-04-28 19:04 40.81099 -0.02738 34923 ft 442 kts 188°
2026-04-28 19:05 40.75034 -0.03618 34928 ft 440 kts 188°
2026-04-28 19:05 40.68922 -0.04501 34930 ft 440 kts 188°
2026-04-28 19:06 40.62846 -0.05379 34928 ft 440 kts 188°
2026-04-28 19:06 40.56789 -0.06353 34929 ft 440 kts 192°
2026-04-28 19:07 40.50850 -0.08184 34933 ft 439 kts 197°
2026-04-28 19:07 40.45033 -0.10475 34947 ft 439 kts 199°
2026-04-28 19:08 40.39207 -0.12856 34942 ft 439 kts 199°
2026-04-28 19:08 40.33381 -0.15212 34939 ft 437 kts 198°
2026-04-28 19:09 40.27547 -0.17539 34939 ft 439 kts 198°
2026-04-28 19:09 40.21705 -0.19850 34937 ft 438 kts 198°
2026-04-28 19:10 40.15876 -0.22145 34932 ft 440 kts 198°
2026-04-28 19:10 40.10011 -0.24446 34926 ft 440 kts 198°
2026-04-28 19:11 40.04155 -0.26737 34924 ft 441 kts 198°
2026-04-28 19:11 39.98257 -0.29040 34922 ft 442 kts 198°
2026-04-28 19:12 39.92413 -0.31316 34925 ft 441 kts 198°
2026-04-28 19:12 39.86558 -0.33593 34580 ft 436 kts 198°
2026-04-28 19:13 39.83658 -0.34719 34025 ft 432 kts 198°
2026-04-28 19:13 39.80785 -0.35835 33342 ft 432 kts 198°
2026-04-28 19:13 39.77932 -0.36942 32576 ft 432 kts 198°
2026-04-28 19:13 39.75055 -0.38060 31775 ft 434 kts 198°
2026-04-28 19:14 39.72157 -0.39184 30956 ft 435 kts 198°
2026-04-28 19:14 39.69268 -0.40303 30135 ft 437 kts 198°
2026-04-28 19:14 39.66309 -0.41448 29281 ft 439 kts 198°
2026-04-28 19:14 39.63420 -0.42565 28794 ft 432 kts 198°
2026-04-28 19:15 39.60577 -0.43661 28301 ft 427 kts 198°
2026-04-28 19:15 39.57728 -0.44761 27775 ft 430 kts 198°
2026-04-28 19:15 39.54850 -0.45872 27211 ft 432 kts 198°
2026-04-28 19:15 39.52932 -0.46612 26837 ft 428 kts 198°
2026-04-28 19:16 39.49127 -0.48076 26087 ft 422 kts 198°
2026-04-28 19:16 39.46341 -0.49129 25532 ft 418 kts 197°
2026-04-28 19:16 39.43568 -0.50137 24981 ft 414 kts 197°
2026-04-28 19:16 39.40805 -0.51120 24430 ft 410 kts 196°
2026-04-28 19:17 39.38074 -0.52081 23887 ft 405 kts 197°
2026-04-28 19:17 39.35376 -0.53030 23344 ft 401 kts 196°
2026-04-28 19:17 39.32683 -0.53980 22811 ft 399 kts 197°
2026-04-28 19:17 39.30004 -0.54927 22277 ft 402 kts 197°
2026-04-28 19:18 39.27326 -0.55876 21736 ft 400 kts 197°
2026-04-28 19:18 39.24659 -0.56820 21174 ft 397 kts 197°
2026-04-28 19:18 39.21985 -0.57767 20630 ft 393 kts 197°
2026-04-28 19:18 39.19381 -0.58689 20092 ft 389 kts 197°
2026-04-28 19:19 39.16774 -0.59612 19550 ft 386 kts 197°
2026-04-28 19:19 39.14198 -0.60524 18992 ft 383 kts 197°
2026-04-28 19:19 39.11663 -0.61421 18454 ft 379 kts 197°
2026-04-28 19:19 39.09147 -0.62312 17913 ft 376 kts 197°
2026-04-28 19:20 39.06645 -0.63197 17377 ft 372 kts 197°
2026-04-28 19:20 39.04148 -0.64080 16832 ft 369 kts 197°
2026-04-28 19:20 39.01701 -0.64945 16283 ft 366 kts 197°
2026-04-28 19:20 38.99228 -0.65818 15736 ft 363 kts 197°
2026-04-28 19:21 38.96814 -0.66668 15208 ft 360 kts 197°
2026-04-28 19:21 38.94424 -0.67510 14670 ft 357 kts 196°
2026-04-28 19:21 38.92019 -0.68357 14118 ft 354 kts 196°
2026-04-28 19:21 38.89674 -0.69182 13586 ft 351 kts 196°
2026-04-28 19:22 38.87320 -0.70010 13057 ft 348 kts 196°
2026-04-28 19:22 38.85777 -0.70552 12707 ft 346 kts 196°
2026-04-28 19:22 38.82676 -0.71641 12002 ft 343 kts 196°
2026-04-28 19:22 38.80390 -0.72444 11486 ft 341 kts 196°
2026-04-28 19:23 38.78127 -0.73237 10970 ft 338 kts 195°
2026-04-28 19:23 38.75873 -0.74027 10620 ft 331 kts 195°
2026-04-28 19:23 38.73703 -0.74786 10462 ft 318 kts 195°
2026-04-28 19:23 38.71607 -0.75518 10316 ft 302 kts 195°
2026-04-28 19:24 38.69656 -0.76200 10252 ft 285 kts 195°
2026-04-28 19:24 38.67778 -0.76856 10118 ft 274 kts 195°
2026-04-28 19:24 38.65980 -0.77484 9934 ft 266 kts 195°
2026-04-28 19:24 38.64197 -0.78107 9580 ft 266 kts 195°
2026-04-28 19:25 38.62403 -0.78734 9224 ft 265 kts 195°
2026-04-28 19:25 38.60635 -0.79351 8887 ft 264 kts 194°
2026-04-28 19:25 38.58870 -0.79966 8549 ft 262 kts 194°
2026-04-28 19:25 38.57107 -0.80580 8258 ft 259 kts 194°
2026-04-28 19:26 38.55412 -0.81170 8142 ft 249 kts 194°
2026-04-28 19:26 38.53777 -0.81713 8013 ft 240 kts 192°
2026-04-28 19:26 38.52126 -0.82142 7693 ft 240 kts 188°
2026-04-28 19:26 38.50501 -0.82489 7388 ft 239 kts 187°
2026-04-28 19:27 38.48867 -0.82832 7089 ft 238 kts 187°
2026-04-28 19:27 38.47215 -0.83191 6753 ft 239 kts 188°
2026-04-28 19:27 38.45591 -0.83554 6469 ft 237 kts 188°
2026-04-28 19:27 38.43967 -0.83920 6170 ft 236 kts 187°
2026-04-28 19:28 38.42361 -0.84280 5881 ft 235 kts 187°
2026-04-28 19:28 38.40747 -0.84642 5634 ft 232 kts 187°
2026-04-28 19:28 38.39184 -0.84993 5452 ft 226 kts 187°
2026-04-28 19:28 38.37655 -0.85335 5265 ft 222 kts 187°
2026-04-28 19:29 38.36129 -0.85677 5034 ft 219 kts 187°
2026-04-28 19:29 38.35125 -0.85890 4879 ft 222 kts 184°
2026-04-28 19:29 38.33137 -0.85703 4585 ft 210 kts 149°
2026-04-28 19:29 38.32154 -0.84451 4303 ft 202 kts 112°
2026-04-28 19:30 38.31872 -0.82754 4025 ft 198 kts 93°
2026-04-28 19:30 38.31733 -0.81030 3860 ft 188 kts 97°
2026-04-28 19:30 38.31514 -0.79416 3597 ft 186 kts 99°
2026-04-28 19:30 38.31279 -0.77812 3338 ft 183 kts 99°
2026-04-28 19:31 38.31058 -0.76225 3085 ft 180 kts 98°
2026-04-28 19:31 38.30844 -0.74660 2828 ft 178 kts 98°
2026-04-28 19:31 38.30633 -0.73129 2594 ft 174 kts 98°
2026-04-28 19:31 38.30424 -0.71622 2354 ft 172 kts 98°
2026-04-28 19:32 38.30220 -0.70154 2130 ft 168 kts 97°
2026-04-28 19:32 38.30017 -0.68691 1901 ft 165 kts 98°
2026-04-28 19:32 38.29819 -0.67266 1682 ft 164 kts 97°
2026-04-28 19:32 38.29621 -0.65833 1462 ft 162 kts 98°
2026-04-28 19:33 38.29428 -0.64468 1293 ft 152 kts 98°
2026-04-28 19:33 38.29246 -0.63175 982 ft 150 kts 99°
2026-04-28 19:33 38.29046 -0.61857 823 ft 153 kts 99°
2026-04-28 19:33 38.28876 -0.60516 669 ft 154 kts 97°
2026-04-28 19:34 38.28698 -0.59172 474 ft 153 kts 100°
2026-04-28 19:34 38.28497 -0.57843 268 ft 155 kts 99°
2026-04-28 19:34 38.28314 -0.56488 118 ft 149 kts 99°
2026-04-28 19:34 38.28169 -0.55475 92 ft 84 kts 99°
2026-04-28 19:35 38.28101 -0.54988 78 ft 30 kts 99°
2026-04-28 19:35 38.28066 -0.54739 69 ft 21 kts 99°
2026-04-28 19:35 38.28045 -0.54587 64 ft 14 kts 100°
2026-04-28 19:35 38.28038 -0.54502 61 ft 7 kts 71°
2026-04-28 19:36 38.28084 -0.54464 60 ft 8 kts 14°
2026-04-28 19:36 38.28138 -0.54452 60 ft 7 kts
2026-04-28 19:36 38.28182 -0.54449 61 ft 6 kts 343°
2026-04-28 19:36 38.28208 -0.54487 62 ft 6 kts 287°
2026-04-28 19:37 38.28220 -0.54561 64 ft 10 kts 279°
2026-04-28 19:37 38.28228 -0.54623 67 ft 12 kts 279°
2026-04-28 19:37 38.28250 -0.54780 72 ft 12 kts 280°
2026-04-28 19:37 38.28263 -0.54872 76 ft 8 kts 279°
2026-04-28 19:38 38.28272 -0.54936 78 ft 7 kts 279°
2026-04-28 19:38 38.28281 -0.54998 81 ft 7 kts 279°
2026-04-28 19:38 38.28289 -0.55060 83 ft 7 kts 280°
2026-04-28 19:38 38.28299 -0.55132 86 ft 9 kts 279°
2026-04-28 19:39 38.28327 -0.55206 88 ft 8 kts 339°
2026-04-28 19:39 38.28375 -0.55178 88 ft 8 kts 52°
2026-04-28 19:39 38.28422 -0.55158 88 ft 7 kts 334°
2026-04-28 19:39 38.28442 -0.55214 89 ft 7 kts 282°
2026-04-28 19:40 38.28451 -0.55274 90 ft 6 kts 281°
2026-04-28 19:40 38.28457 -0.55311 92 ft 2 kts 281°
2026-04-28 19:40 38.28461 -0.55337 92 ft 4 kts 278°
2026-04-28 19:40 38.28466 -0.55377 93 ft 6 kts 281°
2026-04-28 19:41 38.28479 -0.55413 95 ft 2 kts 333°
2026-04-28 19:41 38.28497 -0.55414 95 ft 3 kts
2026-04-28 19:41 38.28518 -0.55410 95 ft 2 kts
2026-04-28 19:41 38.28537 -0.55405 95 ft 3 kts
2026-04-28 19:42 38.28551 -0.55403 95 ft 0 kts
2026-04-28 19:42 38.28553 -0.55402 95 ft 0 kts